Theta_e
330 316 317 331 341 344 341 336 338 339 338 335 330 332 333 333 332 333 332 327 326 331 338 340 341 341 341 340 339 337 336 337 337 338 339 340 341 342 343 343 343 344 344 344 344 343 343 342 342 341 339 338 337 336 336 335 334 332 332 334 335 335 336 336 336 337 338 338 339 340 342 342 340 340 339 338 335 332 331 331 331 328 327 327 324
328 318 318 334 342 342 339 335 338 339 339 335 330 334 334 334 333 333 331 328 333 338 340 340 341 341 340 340 339 338 336 336 337 339 340 339 340 341 343 343 343 344 344 344 343 343 342 341 339 338 336 334 333 333 333 333 332 331 332 332 333 336 336 336 335 336 336 336 337 338 340 340 339 338 337 335 332 329 327 327 326 326 327 328 323
322 319 323 336 343 342 339 335 337 338 339 334 331 334 336 334 334 333 330 332 338 340 340 341 341 341 341 340 339 338 337 336 337 339 340 339 339 340 342 343 343 343 343 343 341 340 339 337 336 334 333 333 332 330 328 327 327 328 333 332 332 336 337 337 336 336 335 334 334 335 337 337 336 334 330 327 325 326 327 326 325 323 325 329 327
320 320 329 340 342 341 339 335 337 338 338 333 331 336 336 335 334 332 330 336 340 339 341 342 342 342 342 341 340 339 338 337 337 339 340 340 339 339 342 342 343 343 341 339 337 336 335 335 334 334 334 333 332 330 327 324 322 322 330 333 332 335 338 338 337 336 336 335 334 332 331 328 329 329 326 324 326 328 331 331 329 325 322 326 328
319 319 330 340 340 341 338 334 336 337 337 332 333 337 337 336 334 331 334 339 340 340 341 342 342 342 342 341 341 340 339 338 337 338 340 341 340 339 341 343 342 342 340 336 334 333 332 332 332 332 331 330 330 330 327 325 321 318 322 329 332 333 336 338 338 338 337 338 338 336 331 324 322 329 329 327 330 332 334 334 333 330 327 326 326
318 317 329 337 339 341 337 334 336 337 336 332 334 337 337 336 333 332 337 340 340 340 341 342 342 341 341 341 341 341 340 339 338 338 338 339 340 339 340 343 342 342 341 336 332 330 329 329 329 328 327 326 325 325 324 323 320 318 317 323 330 333 334 336 338 338 339 339 340 340 337 328 321 330 333 331 333 333 334 334 334 332 330 330 327
318 316 328 333 336 340 336 334 336 336 333 331 335 337 338 335 332 335 339 340 340 340 341 341 341 341 342 341 341 341 341 339 338 338 337 338 340 340 340 341 342 342 342 338 331 328 328 327 327 326 324 323 323 323 323 322 320 319 317 318 326 332 333 334 335 336 338 338 338 340 340 335 323 326 333 334 334 333 334 333 333 332 330 330 329
318 314 324 329 334 340 337 334 336 335 333 332 336 338 337 334 333 338 340 340 340 341 341 340 340 341 341 341 341 340 341 340 339 337 336 336 337 339 339 338 340 341 342 340 332 327 327 326 327 325 324 324 325 325 324 323 320 319 319 319 324 329 331 332 333 334 335 335 336 337 339 339 324 321 330 334 334 333 334 333 333 332 330 329 329
317 314 321 327 334 339 338 334 336 335 334 335 337 339 335 333 336 340 340 340 342 342 341 340 340 339 339 340 340 340 340 340 339 338 336 335 334 336 338 338 338 339 340 340 334 328 326 325 326 326 326 326 327 326 323 320 319 320 321 323 325 328 330 331 333 333 335 334 336 336 338 338 324 320 328 333 334 332 333 332 332 332 331 330 328
316 318 321 325 333 339 339 336 336 336 336 336 337 337 333 335 339 340 340 342 342 341 340 339 339 338 338 337 337 337 338 339 340 338 337 335 334 334 336 338 338 338 339 339 336 330 325 325 326 327 327 327 328 325 321 319 320 322 324 326 328 330 331 332 333 334 335 335 337 336 338 335 324 322 326 330 332 332 332 331 330 330 331 330 329
317 321 321 326 336 340 339 336 335 337 337 337 337 335 333 338 341 340 341 342 342 340 339 338 338 337 335 332 330 330 330 333 336 337 337 336 334 333 335 336 338 340 340 338 337 332 326 325 326 328 327 327 328 323 319 321 324 326 327 329 331 332 333 333 334 335 334 335 336 337 336 333 326 324 324 327 331 332 333 332 331 331 330 330 331
323 327 324 330 338 339 340 337 337 339 339 338 336 333 336 340 341 342 342 342 340 339 339 338 337 333 326 321 320 320 320 323 327 330 332 335 334 333 333 334 337 340 339 338 335 331 327 324 325 329 328 327 328 323 319 322 325 328 330 331 333 333 333 334 334 334 333 334 336 336 335 331 327 324 323 324 327 330 333 332 331 330 330 330 331
330 334 331 336 339 339 340 338 339 341 340 338 335 335 339 341 341 343 342 341 340 339 338 336 332 325 319 317 316 316 317 318 321 324 324 328 332 333 333 333 336 337 336 335 333 330 327 325 325 328 329 328 329 325 319 321 325 328 331 332 333 333 333 334 334 334 333 334 337 336 333 331 326 324 323 322 323 326 329 329 328 329 330 331 331
331 336 336 339 339 339 339 339 341 341 340 338 336 338 341 342 343 343 341 341 340 338 336 333 326 320 318 318 316 315 315 315 316 319 320 321 325 330 330 331 334 334 330 328 329 329 327 325 324 326 329 329 329 327 322 320 323 328 331 332 332 332 334 334 334 334 332 334 336 335 333 330 326 327 326 323 322 321 323 323 324 327 329 330 329
325 333 337 338 339 339 339 340 340 340 339 339 339 341 342 342 342 342 341 340 339 337 334 329 323 320 320 319 318 315 314 313 311 310 313 315 317 321 323 326 327 328 326 324 327 328 327 326 324 324 328 330 329 329 326 322 322 326 330 332 331 332 334 334 334 335 333 333 335 336 333 329 329 330 329 325 323 319 318 319 321 325 328 329 326
323 328 335 338 340 339 339 340 339 339 339 339 341 342 342 342 341 341 340 339 338 336 331 326 323 323 323 323 322 320 319 317 316 313 310 310 310 312 314 318 319 321 322 323 326 328 326 326 325 323 325 328 329 329 328 326 324 324 327 329 329 331 334 334 334 334 334 333 334 336 333 330 331 331 329 326 323 320 319 322 325 327 330 330 327
327 328 333 338 340 339 339 339 339 339 340 341 342 342 342 341 341 341 340 339 337 334 329 325 326 326 327 328 327 326 326 324 323 322 316 311 308 308 309 312 313 316 319 320 323 327 326 326 326 325 324 325 327 328 328 327 325 324 325 325 325 330 333 333 333 332 333 334 334 336 333 331 332 331 330 327 323 322 323 327 328 329 331 331 329
325 328 332 336 338 338 339 339 339 340 341 341 342 343 342 341 341 341 340 339 336 333 329 328 328 328 329 331 330 330 331 329 328 326 322 317 313 309 308 308 310 312 313 314 318 323 326 326 326 325 325 325 324 326 326 326 326 325 325 325 325 328 330 332 333 329 328 333 335 335 333 332 332 331 330 327 324 324 326 327 329 329 330 330 331
325 328 331 335 338 339 340 340 340 340 341 342 343 343 341 341 342 341 340 338 336 332 330 331 330 329 331 332 332 333 335 334 331 326 323 323 320 317 314 310 309 309 310 311 312 316 322 325 326 325 325 325 324 324 324 325 325 325 325 325 325 324 327 329 329 326 324 329 336 335 334 334 332 331 330 327 325 324 324 325 327 329 329 329 331
330 329 332 337 340 340 340 341 341 340 341 342 343 342 341 341 342 341 340 338 336 333 332 332 332 333 336 336 336 336 336 335 330 326 326 326 324 322 320 317 314 312 310 311 311 313 318 321 323 324 324 324 323 322 321 321 322 323 323 324 325 325 325 325 324 324 323 326 334 336 334 335 332 331 330 328 328 326 324 323 325 327 328 329 331
336 334 336 338 340 340 340 340 340 341 342 342 342 342 341 341 342 341 340 338 336 334 333 334 334 335 338 339 338 338 337 333 328 327 331 332 331 328 324 322 321 321 319 314 313 313 314 316 318 319 320 318 318 319 321 322 321 320 319 320 327 329 329 330 329 329 328 327 332 336 335 335 333 331 330 330 330 327 325 323 324 325 327 330 332
338 337 338 339 339 339 340 340 340 342 343 343 343 342 342 341 341 341 340 338 336 335 335 334 335 336 340 341 340 339 336 332 329 330 332 333 336 336 332 330 329 333 332 326 323 321 320 321 325 326 325 323 324 327 330 330 328 326 321 321 326 330 331 332 333 333 332 329 330 335 336 335 333 331 330 331 330 328 326 323 324 324 326 329 332
337 338 339 339 338 338 340 340 341 342 343 343 343 342 342 341 341 341 340 338 337 337 335 335 337 338 340 341 341 340 336 332 332 334 335 335 337 339 339 338 337 339 339 337 335 333 332 333 335 336 335 335 335 336 336 335 334 334 332 330 331 330 331 332 333 333 333 331 330 334 337 335 333 331 331 332 331 330 327 325 325 324 325 328 330
337 337 338 339 339 339 340 341 342 342 343 343 343 343 342 341 341 340 339 339 338 337 336 336 338 340 341 340 340 340 336 333 333 334 338 338 338 339 340 340 339 340 339 339 338 338 338 337 338 339 339 338 338 338 338 338 337 338 338 337 336 335 333 333 334 334 334 333 332 333 336 336 334 332 332 332 332 330 329 328 327 327 326 328 329
337 337 338 338 339 340 340 341 342 343 343 343 343 342 342 341 341 340 340 339 338 337 336 335 338 340 341 341 340 340 337 335 334 334 336 339 340 340 340 340 339 340 340 339 339 339 338 339 339 339 340 340 339 340 340 340 340 340 339 339 338 337 336 335 335 335 334 334 334 334 336 336 335 334 333 333 332 331 331 331 330 329 328 328 329
337 337 337 337 337 339 340 341 342 343 343 342 342 342 341 341 341 340 339 339 338 337 336 337 339 341 341 341 341 340 338 337 335 335 337 340 341 340 341 341 341 341 341 340 340 340 339 339 340 340 340 341 341 341 341 341 340 340 340 340 339 339 338 338 337 336 334 334 334 335 336 337 336 334 334 333 333 332 332 332 331 331 330 329 329
337 337 337 336 336 338 338 340 340 340 342 341 341 341 341 341 340 340 339 339 338 338 339 340 340 341 340 340 339 338 337 337 336 337 339 341 341 340 341 342 342 342 341 341 341 341 341 340 340 341 341 341 340 340 340 340 340 340 340 339 339 339 339 339 338 338 337 335 334 335 335 336 335 334 334 333 333 333 333 333 333 332 332 331 330
338 337 337 335 334 335 335 337 337 336 338 339 338 340 340 339 339 340 338 338 339 340 340 340 340 341 340 339 337 335 335 335 338 339 340 341 341 341 342 342 342 342 341 341 341 341 341 341 341 341 340 340 340 339 339 339 339 339 339 339 339 339 339 339 339 338 338 337 335 335 334 334 335 334 333 333 333 333 333 333 333 333 333 332 331
339 338 337 335 333 333 334 335 335 333 334 334 335 339 339 338 338 337 336 337 339 340 340 340 341 341 339 337 336 334 334 337 339 340 341 342 342 342 343 342 342 342 342 342 341 341 341 341 340 340 340 339 339 339 339 339 339 338 338 338 338 338 338 338 338 338 338 338 337 336 335 334 334 334 333 333 333 333 334 333 333 333 333 333 332
339 338 338 338 336 334 335 336 335 333 334 332 332 336 337 336 337 335 336 339 339 339 339 340 340 339 337 335 334 335 337 340 341 341 342 343 343 343 343 342 342 342 342 341 340 340 340 340 340 339 339 339 339 338 338 338 338 338 337 337 337 337 337 337 337 337 337 337 337 337 336 335 333 334 333 333 333 333 334 335 335 335 335 334 332
341 340 340 339 337 336 337 336 335 335 335 333 332 335 336 336 337 336 337 339 339 338 339 340 338 337 335 334 335 336 340 341 341 342 342 342 342 341 341 341 341 341 341 340 339 339 339 339 339 339 338 338 338 338 338 337 337 337 337 336 336 336 336 336 336 336 336 336 337 337 337 336 335 334 334 334 333 333 334 335 336 336 338 337 335
341 342 342 340 338 338 338 336 335 336 336 334 333 336 337 337 338 338 338 338 339 339 340 339 337 334 334 336 337 339 341 342 342 343 342 341 341 340 340 340 341 340 340 339 339 339 338 339 338 338 337 336 336 336 336 336 336 336 335 335 334 335 335 335 335 335 336 336 336 337 337 337 336 335 334 334 334 335 334 334 336 337 338 339 338
339 342 342 341 340 339 337 336 336 337 335 334 336 337 337 338 338 339 339 338 339 339 339 337 335 335 336 338 340 341 342 342 342 342 341 340 339 340 340 340 340 340 340 339 338 338 337 337 337 336 335 333 333 333 333 333 334 334 333 332 332 332 333 333 334 334 334 334 335 336 336 337 337 337 336 335 335 334 334 334 335 336 336 337 337
340 342 342 341 340 339 337 337 337 336 335 335 337 338 338 338 338 339 339 338 338 337 337 336 334 336 339 340 340 342 342 342 342 340 339 340 339 340 340 340 340 339 338 337 337 337 337 335 334 333 332 332 332 332 332 332 333 333 332 332 331 331 332 332 332 332 333 333 333 334 335 336 337 337 336 336 336 335 335 335 335 335 335 336 336
340 340 341 341 339 339 338 339 338 336 336 337 337 338 338 338 338 338 338 337 337 336 337 336 335 337 340 341 341 342 342 341 342 341 339 340 340 340 339 339 339 338 336 336 336 335 334 333 332 332 331 331 331 331 332 332 333 332 332 332 331 331 331 332 332 332 332 333 334 334 335 336 336 336 335 335 335 335 335 335 334 334 334 335 335
341 341 340 339 338 339 339 339 339 337 336 337 338 338 337 337 337 337 337 337 337 337 336 335 336 339 341 341 341 342 342 341 342 341 340 340 340 339 338 338 336 336 336 334 334 333 332 332 331 331 331 330 330 331 332 332 332 332 332 331 331 331 331 331 331 330 330 331 333 334 334 335 334 335 335 335 334 334 334 335 335 334 334 334 334
341 341 339 337 338 339 338 338 338 337 337 338 338 338 337 337 337 337 336 337 338 336 335 336 339 341 341 340 340 341 341 341 341 340 339 338 338 337 336 335 335 335 334 333 332 331 331 331 330 330 331 331 331 331 332 332 332 332 331 330 330 330 331 331 330 329 329 329 330 331 331 332 333 334 334 334 334 334 334 334 334 334 334 334 334
339 340 339 336 338 340 338 337 336 337 338 338 338 337 337 337 337 337 336 337 338 337 336 339 342 341 340 339 339 339 340 340 340 339 337 336 336 335 335 334 334 334 333 332 332 331 331 330 330 331 331 331 331 331 332 332 332 331 331 330 330 330 331 330 329 329 329 328 329 328 329 330 331 332 333 334 333 333 333 333 333 333 334 333 333
339 340 339 337 338 339 338 337 337 338 338 338 338 337 337 337 337 337 337 337 338 339 340 341 341 339 339 338 338 338 338 338 337 336 336 336 335 334 334 333 332 332 331 331 331 330 331 331 331 331 331 331 331 332 332 332 331 331 330 330 329 329 331 330 328 328 328 328 328 328 328 328 329 329 330 332 332 333 333 333 333 333 333 333 333
339 340 339 338 339 339 338 338 338 338 338 338 339 338 338 338 338 338 339 339 339 340 341 341 340 338 337 336 336 336 336 335 335 335 335 335 334 333 333 332 331 331 330 330 330 331 331 331 331 330 330 330 331 331 331 332 331 331 330 330 330 329 330 329 328 328 328 328 328 327 327 327 327 328 328 329 330 331 332 332 333 333 333 333 333
338 338 338 338 339 338 338 338 338 337 338 339 339 339 339 339 339 339 340 340 340 340 340 339 338 337 336 336 335 335 334 334 334 334 333 333 332 332 331 330 330 329 330 330 331 331 331 331 330 330 330 331 331 331 331 331 331 330 330 330 329 329 329 329 328 328 328 328 328 327 327 327 327 328 328 328 329 330 331 331 332 333 333 333 333
338 338 338 338 338 338 338 338 338 338 338 340 339 339 340 340 339 340 340 340 340 340 339 337 336 335 335 335 333 333 333 333 333 332 332 331 330 329 330 330 330 330 330 331 331 331 330 330 330 330 330 330 331 331 331 331 331 330 329 330 330 330 329 328 328 328 327 328 328 327 326 326 327 327 328 328 328 329 330 330 332 332 333 333 332
338 338 338 337 337 338 338 338 338 338 339 340 340 340 340 339 339 340 340 340 339 338 337 336 335 334 334 333 332 332 332 332 331 331 330 330 329 329 330 330 330 330 331 331 330 330 330 330 330 330 330 330 330 330 330 330 330 329 329 331 332 331 331 328 327 328 327 327 327 326 325 325 326 327 327 328 328 328 329 331 332 332 332 332 331
338 338 337 336 337 338 339 338 338 338 339 340 340 340 340 339 339 340 339 339 337 336 336 335 334 333 333 333 333 332 332 332 330 329 329 329 329 330 330 330 330 330 330 330 329 330 330 330 330 330 330 330 330 329 329 328 327 329 329 330 331 331 332 329 327 328 327 327 327 326 325 324 326 327 327 329 328 327 328 329 331 331 331 331 331
338 339 338 337 337 338 339 339 338 338 339 340 339 339 340 339 340 339 337 337 336 336 335 334 333 333 333 333 332 332 332 331 329 328 329 330 330 330 330 330 330 329 329 329 329 329 329 329 330 330 330 330 329 328 328 326 325 326 328 329 330 331 331 328 327 328 326 326 326 325 324 323 325 326 327 329 328 326 325 326 328 329 330 330 331
338 339 339 338 338 338 339 339 339 339 339 340 339 340 340 340 339 337 335 335 335 336 335 333 333 333 333 332 331 330 329 329 329 328 329 330 330 330 330 330 329 328 328 328 329 329 329 329 328 329 329 328 327 326 325 324 323 324 325 326 327 328 327 326 326 326 325 325 325 324 323 323 325 326 326 328 328 326 324 324 325 326 327 328 329
338 339 339 339 338 339 340 339 339 339 339 340 340 340 340 340 338 336 335 336 335 336 335 333 334 333 332 331 329 328 328 329 329 329 329 330 330 329 329 328 328 327 327 328 329 329 328 327 326 326 326 325 325 324 323 323 322 323 322 322 323 323 324 324 324 325 325 325 324 323 323 322 324 325 325 327 326 322 320 322 323 323 325 326 327
338 339 340 340 340 340 340 340 340 340 340 340 340 340 340 339 337 335 336 336 336 336 334 334 334 332 330 329 328 328 328 329 329 329 329 329 329 329 328 327 326 327 327 328 327 327 326 326 324 324 323 323 323 322 322 322 322 321 321 320 320 321 322 322 322 323 325 325 323 323 322 322 323 324 325 326 324 318 314 317 318 318 321 324 324
338 339 340 341 340 340 341 340 340 340 340 340 340 339 339 338 336 335 336 337 336 336 335 334 332 330 329 329 329 328 328 329 329 328 328 328 328 327 327 326 326 327 327 327 326 326 326 325 323 322 321 321 321 321 321 321 321 321 320 320 320 321 321 320 320 321 323 324 324 323 322 322 323 323 324 324 321 316 312 312 313 314 317 320 321
337 339 340 341 340 340 340 340 340 340 340 340 339 338 338 337 335 335 337 337 336 335 334 333 330 329 330 330 329 329 328 328 328 327 327 327 326 326 326 325 326 327 326 325 325 325 325 323 322 321 320 320 319 319 319 320 320 319 319 320 319 320 321 321 321 321 322 323 323 322 322 322 322 323 324 321 317 317 315 311 310 311 312 315 318
338 338 340 341 340 340 339 339 339 339 339 338 338 338 336 336 335 335 337 336 335 335 333 331 330 330 330 329 329 329 328 328 327 327 326 326 326 325 324 325 325 326 324 324 324 324 323 321 320 320 319 319 318 318 318 318 318 318 318 318 318 318 319 320 321 321 322 322 323 322 321 322 322 322 323 321 316 316 316 312 308 309 310 310 313
Wind_Speed
25 25 24 23 22 21 20 23 24 23 22 20 20 19 18 17 17 15 14 14 16 17 18 18 19 18 17 17 16 15 15 15 15 15 14 14 14 14 14 14 14 14 14 15 15 14 14 13 13 12 12 13 13 12 12 12 13 13 12 11 12 12 12 12 11 11 10 10 10 11 12 12 13 12 10 9 9 8 7 7 6 6 7 7 8
28 26 25 24 24 22 21 24 25 24 22 21 21 19 19 17 17 15 14 15 16 17 18 18 18 18 17 17 15 14 14 14 14 14 14 14 14 14 14 14 15 15 15 15 14 14 13 13 13 13 13 13 13 12 11 11 12 12 10 10 11 11 11 11 10 10 9 9 9 9 10 10 10 9 8 7 6 6 6 6 5 6 7 7 8
30 28 26 24 24 23 22 24 25 24 23 22 21 20 19 17 17 15 15 16 16 17 17 18 18 18 17 16 15 13 13 13 13 13 13 12 13 13 13 14 14 15 14 14 13 13 13 13 13 13 13 12 11 10 9 9 9 10 8 9 10 10 11 10 9 10 9 9 8 8 8 8 8 7 5 5 4 5 5 6 7 7 8 8 9
30 29 27 25 23 23 23 24 25 25 23 22 22 20 19 18 17 16 16 17 16 16 17 17 17 17 16 15 14 13 12 12 12 12 12 12 12 12 12 13 14 14 13 13 14 14 13 12 12 11 10 9 8 7 7 7 7 7 7 7 8 9 9 9 8 9 9 8 8 6 5 6 7 6 5 5 6 6 7 7 7 8 9 9 9
31 30 28 25 24 24 24 25 26 25 24 23 22 20 19 18 17 16 17 17 17 16 16 16 16 15 14 14 13 13 12 12 12 12 11 11 11 11 11 12 12 12 12 13 13 12 12 11 9 9 8 7 6 6 5 5 5 5 5 6 6 6 7 7 7 7 8 6 5 6 5 3 5 6 5 6 7 8 8 7 7 8 9 9 9
32 31 29 27 26 25 25 26 26 26 25 24 22 21 20 18 17 17 18 17 17 16 16 15 15 14 14 13 13 12 11 11 11 11 11 11 10 10 10 11 11 11 11 11 11 11 10 10 9 8 7 6 6 5 4 4 3 4 4 5 5 5 5 5 6 5 5 2 2 3 4 3 2 6 6 6 7 8 8 7 5 5 8 7 7
32 32 30 29 28 26 26 27 27 27 25 24 23 21 20 18 18 18 18 18 17 16 15 15 14 14 13 13 12 11 10 10 11 11 11 11 11 10 10 9 10 10 9 9 10 10 9 9 8 8 7 7 6 6 4 4 4 4 5 6 6 5 4 3 3 2 2 3 4 5 5 4 0 5 5 5 6 7 7 6 4 3 5 6 6
33 32 30 30 28 26 26 27 27 27 26 25 23 21 20 19 19 19 19 18 16 15 14 14 13 12 12 11 10 10 10 10 10 10 10 10 10 10 9 8 9 9 8 8 8 8 8 8 8 7 7 7 7 6 5 5 6 7 7 7 6 5 3 2 1 2 3 5 6 7 8 7 2 3 5 4 5 7 8 6 5 3 4 6 6
34 32 31 30 28 26 26 28 28 27 26 25 23 22 21 20 20 20 19 18 16 15 14 14 12 11 10 9 9 9 9 9 9 9 9 9 8 9 9 8 8 8 8 7 7 7 7 7 7 7 7 7 7 7 7 7 8 8 8 7 5 4 2 1 2 4 4 5 6 8 8 6 3 2 4 5 5 6 7 6 5 4 4 5 6
34 32 31 30 28 25 25 28 28 27 26 25 24 22 21 21 20 20 19 17 16 14 14 13 11 10 9 8 7 7 8 8 9 9 9 8 7 8 9 8 7 7 6 5 6 6 6 7 6 6 6 7 7 7 8 8 9 8 7 6 5 3 2 2 5 6 2 3 4 6 6 6 3 2 4 6 5 4 5 4 4 3 4 4 4
34 32 31 29 27 25 26 28 27 27 26 25 24 23 22 21 20 20 19 17 15 14 13 12 10 9 7 6 6 7 7 8 9 9 9 9 8 7 8 8 9 7 5 4 5 5 5 6 6 6 6 7 7 7 8 8 8 7 6 5 4 3 2 4 8 6 1 3 3 6 6 6 3 1 4 5 5 4 5 4 3 4 4 4 3
33 32 30 27 26 26 27 26 26 25 24 25 24 23 23 22 20 19 18 16 15 14 12 11 9 8 7 6 6 6 6 7 8 8 9 10 9 8 8 8 9 9 7 5 4 4 4 5 5 5 6 7 8 7 7 7 7 6 5 4 3 2 3 6 10 7 1 4 5 7 7 6 2 1 2 3 4 5 5 4 4 4 4 4 4
32 31 29 27 26 26 27 25 25 24 23 24 23 24 23 22 20 18 17 16 15 13 12 10 8 7 7 6 6 5 5 6 6 6 8 10 11 10 9 8 9 8 7 6 5 4 4 4 5 5 6 6 7 7 6 6 5 5 4 3 1 2 4 7 10 8 0 6 8 7 6 4 1 1 1 2 3 4 5 5 4 3 4 5 4
33 30 28 27 26 26 25 25 24 23 23 23 23 24 22 21 19 18 17 16 14 13 11 9 8 8 8 8 7 6 6 6 6 6 6 8 10 11 10 9 9 8 6 5 6 5 5 4 4 4 5 6 7 7 6 4 4 4 3 2 1 2 5 7 10 8 1 6 8 7 6 4 1 1 2 1 2 4 5 5 5 4 4 5 5
35 31 28 27 26 24 23 24 23 23 23 23 23 23 22 21 19 18 17 15 14 13 11 9 9 9 9 9 9 9 8 8 7 7 6 6 7 9 10 10 9 8 5 4 5 6 5 4 3 3 4 5 6 6 6 4 2 3 2 1 2 4 5 6 8 9 2 6 9 8 6 5 2 2 3 3 2 3 5 5 5 5 5 5 3
34 31 29 28 26 24 22 22 23 23 23 23 23 21 21 20 19 18 16 15 14 12 10 9 10 10 11 10 10 11 10 10 10 9 8 6 5 6 8 9 8 7 5 3 4 5 5 4 2 3 3 4 5 5 6 5 2 1 2 3 4 5 4 6 7 9 6 4 10 10 8 6 4 3 4 4 3 2 4 4 4 4 4 4 2
31 31 30 28 26 24 23 22 22 23 23 23 21 20 20 19 18 17 15 15 13 12 11 10 11 11 11 11 10 11 11 11 11 11 10 8 6 4 4 6 7 6 4 3 2 3 3 2 1 2 3 4 4 5 5 5 3 1 2 4 5 6 5 7 7 8 10 5 7 11 9 7 6 4 4 4 3 3 2 3 4 4 5 4 2
30 30 30 28 27 25 24 23 23 23 23 22 21 20 19 19 18 16 15 14 13 12 11 11 11 11 11 10 11 11 11 11 11 10 10 9 8 7 5 3 4 5 4 3 2 2 2 2 0 1 2 3 4 5 5 5 5 4 4 5 5 7 6 7 8 9 11 10 6 10 11 9 8 6 5 5 4 3 3 4 4 5 6 5 4
30 30 29 29 28 26 26 25 24 24 24 23 21 20 19 19 18 16 15 14 13 12 11 11 11 11 11 11 11 11 11 11 10 10 10 10 10 9 8 6 4 2 2 2 2 2 2 2 2 3 3 4 5 6 6 6 6 6 6 6 6 7 7 8 10 11 12 11 10 10 13 12 10 8 7 6 5 4 5 5 5 6 6 5 5
30 30 29 29 28 27 27 25 25 25 24 23 21 19 19 19 18 16 15 14 13 12 11 10 10 11 11 11 10 10 10 10 10 11 11 11 10 10 9 8 7 6 4 2 1 1 2 3 4 4 5 6 7 8 8 8 9 9 9 8 8 7 7 8 10 12 12 12 11 11 12 14 12 10 9 8 6 6 6 6 6 7 6 5 6
29 30 30 29 28 28 27 26 25 24 23 22 21 20 19 19 18 16 15 14 13 12 11 10 11 11 10 10 9 9 9 10 11 11 11 12 11 10 9 9 8 8 7 5 4 3 2 3 4 5 6 7 8 8 9 10 11 11 11 9 8 8 9 10 11 13 14 13 12 12 11 15 14 12 11 10 8 7 7 7 6 6 6 7 7
28 28 28 29 28 28 27 26 25 24 23 22 21 21 19 19 18 16 15 14 13 12 11 10 11 11 9 9 8 8 8 9 10 10 10 10 10 10 9 8 8 8 8 7 6 5 4 5 6 6 7 8 8 9 10 11 11 11 10 9 10 12 13 13 13 14 15 14 14 13 12 15 16 15 14 12 11 10 9 8 7 7 6 7 9
26 27 27 27 28 28 26 26 25 24 24 23 22 21 20 19 18 17 15 15 14 12 11 11 11 10 9 8 7 6 7 8 9 8 9 8 8 8 8 8 7 7 7 7 7 6 5 6 7 8 9 9 10 10 11 11 11 11 11 11 13 15 16 15 14 13 14 15 15 15 14 15 17 17 16 14 13 12 11 9 9 8 7 8 10
24 26 26 25 26 27 25 25 24 24 24 23 22 21 21 20 19 17 16 16 15 13 11 11 11 9 8 7 6 6 5 6 6 6 7 7 6 6 7 8 7 7 8 8 8 7 7 7 7 9 10 11 11 11 12 12 13 13 14 15 16 17 17 16 16 15 15 16 16 16 16 17 18 19 18 16 15 14 13 11 11 11 9 9 11
25 26 26 25 25 25 25 24 23 23 23 23 22 21 20 20 18 17 16 16 14 13 12 11 11 9 8 6 5 4 3 3 3 3 3 5 4 4 6 7 7 8 8 8 8 9 10 9 9 10 12 12 12 13 14 14 15 15 15 17 19 18 17 16 17 17 17 17 18 19 19 19 20 20 20 18 17 16 15 14 13 13 12 11 11
28 29 29 28 27 25 24 23 21 21 22 22 21 20 20 19 18 17 16 15 14 13 12 11 10 8 7 5 4 3 2 2 2 1 1 3 4 4 5 6 7 8 8 8 9 10 11 11 12 12 13 14 13 14 15 17 17 17 17 18 19 19 18 17 18 18 18 18 19 20 22 22 22 22 22 21 19 19 18 17 16 15 14 13 13
28 29 30 29 28 26 24 22 21 20 20 20 20 20 20 19 17 16 15 15 14 13 13 11 9 8 6 4 3 3 3 3 2 2 2 3 4 4 5 5 7 7 7 8 9 10 11 12 13 13 14 14 14 15 16 17 18 18 18 18 18 18 18 19 19 19 19 17 17 19 21 23 24 24 23 23 22 21 20 19 19 17 17 16 15
26 26 28 29 28 27 26 24 22 21 20 21 21 20 20 18 17 15 14 14 14 13 12 11 8 6 5 6 5 4 5 3 2 3 3 3 4 4 4 5 6 7 7 8 9 9 10 11 11 12 12 13 14 15 16 16 16 17 17 17 17 17 18 19 19 19 19 17 17 19 19 20 22 24 25 25 23 23 22 21 20 19 18 18 17
25 25 27 28 29 28 27 26 23 22 22 23 23 22 20 18 17 15 14 14 14 13 12 11 9 8 8 9 8 7 7 4 3 3 2 2 3 3 4 4 6 7 6 6 7 8 9 10 11 11 11 12 13 14 15 15 16 16 17 17 17 17 18 19 19 19 19 19 18 18 18 17 18 22 25 26 25 23 23 23 23 22 21 20 19
25 27 26 27 28 28 27 25 23 22 22 23 24 23 20 19 18 16 15 15 14 13 13 11 10 11 11 9 9 8 6 4 3 2 1 2 3 3 4 5 6 6 6 6 7 8 8 9 9 9 10 11 12 13 14 15 15 16 16 17 17 17 18 18 19 19 20 21 19 18 18 17 19 22 24 27 27 24 24 25 24 24 23 22 20
22 22 23 25 28 28 25 23 22 21 21 24 25 24 21 20 18 16 16 15 14 14 13 12 12 13 12 9 9 8 6 4 4 2 1 3 4 4 4 4 4 4 5 6 7 8 8 8 9 9 10 11 12 12 13 13 14 15 16 16 17 17 17 18 18 18 18 19 20 20 19 18 19 20 21 24 27 27 26 27 25 25 25 22 19
22 22 21 25 29 29 26 23 22 21 22 24 25 24 21 20 18 17 16 14 13 14 14 14 13 11 10 10 9 8 6 4 3 2 2 3 4 4 4 3 3 3 4 5 7 8 8 8 8 8 10 11 12 12 12 12 13 14 15 17 18 17 18 18 18 19 19 19 19 20 20 20 20 19 19 20 24 26 27 28 27 26 26 22 20
27 31 29 27 31 30 28 25 22 21 23 25 25 24 22 20 19 18 17 15 15 16 16 16 13 10 10 10 8 8 7 4 2 1 3 3 4 4 3 3 3 4 5 6 6 7 7 7 8 9 11 12 12 12 12 12 12 13 15 17 17 17 17 18 19 20 20 20 19 19 20 21 21 20 19 20 23 26 27 28 29 29 27 24 24
30 36 36 34 31 27 27 26 23 23 24 25 24 23 23 21 19 19 19 18 18 18 16 14 11 10 10 9 9 8 7 5 3 2 2 3 4 5 4 3 4 6 6 6 6 6 8 9 10 11 12 13 13 13 13 13 13 13 15 17 17 16 16 17 18 19 19 19 19 18 19 21 22 20 21 23 25 26 27 27 27 29 28 27 27
31 34 36 34 29 24 24 24 24 26 26 24 22 21 22 21 20 20 21 21 18 16 14 12 11 11 11 10 10 9 7 6 4 2 3 3 4 5 5 5 6 6 7 7 7 8 9 10 11 12 13 13 13 13 13 13 13 15 16 17 17 16 16 17 17 17 18 17 16 17 18 19 20 21 23 24 25 25 26 26 24 26 28 28 28
33 34 33 30 29 26 24 24 25 28 27 24 21 20 21 21 20 19 18 17 15 14 13 13 13 12 11 11 10 9 7 6 6 5 5 5 5 7 7 6 6 6 7 7 8 10 10 11 11 13 14 14 14 14 14 14 15 16 16 18 17 16 16 16 17 18 18 16 15 16 17 18 19 20 21 22 23 24 24 24 23 24 25 27 27
34 35 35 33 33 30 26 26 27 27 26 24 22 21 20 19 18 17 16 15 14 14 13 14 14 12 11 11 10 8 6 6 6 7 8 8 8 8 8 7 6 6 7 7 9 10 11 12 12 14 15 15 15 16 16 16 17 16 17 18 16 16 15 15 19 19 18 17 16 16 17 17 18 19 20 21 22 22 23 23 23 23 24 25 25
34 35 38 38 36 31 28 27 26 26 25 24 22 21 20 19 18 17 17 16 15 14 14 14 13 11 11 11 9 6 5 7 8 9 9 9 8 7 7 7 6 7 8 8 9 10 12 13 14 14 14 15 16 18 18 17 17 17 19 18 16 15 13 15 20 18 17 18 19 19 19 19 20 20 21 22 23 22 22 22 22 22 23 23 23
36 37 39 38 35 31 28 27 26 26 25 23 22 22 21 20 19 18 17 16 15 15 14 14 12 11 10 8 7 6 8 9 10 9 8 7 7 6 6 7 7 8 8 8 10 12 13 14 15 15 15 16 17 18 18 18 18 18 19 17 15 14 11 14 19 16 18 20 20 21 20 21 22 21 22 22 23 23 22 22 22 22 22 22 22
38 39 37 33 32 30 29 28 27 28 27 25 24 24 23 22 21 19 18 17 16 15 14 12 11 10 8 8 9 10 11 11 10 8 7 6 6 6 7 8 8 8 9 10 12 13 14 15 16 17 17 17 17 19 19 18 19 19 20 17 14 13 9 13 18 15 18 19 20 23 21 23 24 21 22 21 21 22 22 23 22 23 23 22 22
36 38 35 34 34 32 32 32 31 30 29 28 27 27 26 24 22 20 19 17 16 15 13 11 9 10 11 12 13 13 13 11 9 8 7 7 7 7 8 9 9 9 10 11 12 13 15 15 15 16 17 19 19 21 21 18 20 19 18 16 13 13 9 13 20 16 17 19 19 23 25 26 26 22 22 22 22 22 22 23 23 23 24 23 23
31 31 33 36 36 34 34 34 32 30 29 28 28 28 27 25 22 20 19 18 16 15 13 12 13 14 15 15 15 14 13 11 9 8 8 8 8 8 9 9 9 10 10 11 12 13 15 15 16 16 16 17 17 20 21 17 18 16 12 10 9 11 8 12 22 17 16 19 18 22 27 27 27 24 25 24 24 24 23 23 23 24 24 24 23
26 23 25 31 33 33 34 34 32 30 29 28 27 27 26 24 21 19 19 18 16 14 14 16 17 17 17 16 14 12 11 10 9 8 8 9 9 9 10 10 9 9 10 11 13 14 15 14 15 16 15 16 15 18 20 18 18 16 9 4 3 7 5 10 23 18 15 18 17 22 28 28 27 26 27 27 27 27 23 22 22 23 23 22 22
24 22 23 26 29 30 32 32 31 29 29 27 26 26 23 21 19 18 18 16 15 16 17 18 18 18 16 14 11 9 8 9 9 9 9 10 10 10 9 9 9 9 10 12 14 15 15 15 14 14 14 15 15 16 18 19 21 16 8 3 2 4 2 7 18 15 14 18 16 22 28 29 28 27 28 27 27 28 26 24 23 22 21 20 21
23 23 25 26 26 27 29 30 30 28 28 27 26 25 23 21 20 19 17 16 18 20 20 19 17 17 14 11 9 6 7 8 9 10 11 10 10 9 8 8 9 10 11 12 14 15 15 15 14 14 14 14 14 15 16 18 20 19 11 4 3 3 3 8 11 9 15 17 15 22 28 29 28 27 28 26 26 29 28 27 25 22 22 21 21
22 23 25 26 27 27 27 28 28 28 27 26 25 25 24 24 24 23 21 21 21 20 20 20 17 15 12 10 9 7 7 8 9 10 10 10 9 8 7 7 9 11 11 12 13 14 15 15 14 14 15 13 12 15 16 16 18 20 18 12 8 5 5 9 6 4 12 13 12 21 27 28 28 27 27 25 26 29 29 29 27 26 24 22 22
23 24 24 26 27 27 26 27 27 27 27 26 25 24 24 25 26 25 25 26 23 19 19 19 16 14 12 11 11 10 10 11 11 11 9 9 8 7 7 8 10 11 11 12 14 14 15 15 14 14 14 13 13 16 17 17 17 19 19 17 14 12 10 10 6 4 7 7 12 20 25 27 26 26 27 25 26 30 31 29 29 29 27 24 24
24 25 24 25 26 26 26 26 27 27 27 26 24 24 25 26 26 25 25 25 24 21 19 18 16 14 13 14 14 14 12 12 12 10 8 7 7 7 7 8 10 11 12 14 15 15 15 14 14 14 15 15 17 18 18 18 18 17 18 18 16 15 13 13 12 8 4 4 10 15 23 28 25 25 26 24 26 30 33 33 31 33 31 27 26
25 25 25 25 25 25 26 26 26 26 26 25 24 25 26 27 26 26 25 23 23 23 20 18 16 15 16 17 16 15 13 12 11 8 7 6 6 7 7 9 11 12 13 15 15 15 15 14 15 15 17 18 19 18 19 19 18 17 16 16 15 14 13 14 16 14 7 4 6 7 16 23 22 24 25 23 24 28 33 36 34 35 34 31 29
24 25 25 24 24 25 25 25 25 25 25 25 25 25 26 26 26 27 26 24 24 24 21 18 18 17 18 18 17 16 14 12 10 8 7 7 7 7 8 10 13 14 15 15 15 15 14 14 14 16 17 19 20 20 20 20 19 18 17 15 15 14 11 10 14 15 9 5 5 5 10 14 13 17 21 21 23 25 30 36 36 36 36 34 32
23 25 24 24 25 25 24 23 23 24 24 24 24 24 25 25 26 27 27 26 26 24 22 20 20 19 19 19 19 17 14 13 10 9 8 7 6 7 9 12 13 14 15 14 13 13 14 14 15 15 17 19 20 20 20 19 19 19 19 18 17 16 13 10 12 14 10 6 6 5 9 13 11 14 16 17 22 24 27 34 38 37 35 35 34
Wind_Direction
165 164 163 161 161 160 156 154 153 153 151 149 145 142 139 135 133 129 121 118 119 119 116 114 112 113 114 116 116 113 111 109 106 103 98 95 94 94 96 98 100 99 99 99 97 96 96 96 96 96 96 95 94 94 95 95 91 84 84 85 86 87 88 88 87 89 90 89 86 83 83 86 88 89 90 87 79 77 82 85 88 83 76 70 74
163 163 163 161 162 160 157 155 154 154 152 151 147 144 140 136 135 130 124 122 121 119 116 115 114 116 118 120 119 117 115 112 108 102 98 97 96 95 96 99 102 101 100 98 98 97 97 96 97 99 96 94 92 91 90 90 87 83 82 82 85 90 90 89 89 87 85 83 83 85 85 86 87 89 85 81 75 74 83 89 95 93 86 79 81
160 161 162 160 163 160 158 156 154 154 153 152 148 145 141 138 137 132 128 125 122 119 119 118 116 116 119 122 121 120 117 114 109 102 98 97 97 97 98 101 104 103 102 101 101 99 96 95 96 97 93 90 86 85 84 82 81 82 84 81 83 91 96 94 93 92 84 71 73 84 89 92 90 89 84 76 75 79 86 88 90 91 92 90 88
160 161 160 160 163 159 157 157 154 154 154 154 150 146 142 141 138 134 130 127 125 123 123 119 117 117 119 123 123 123 120 115 110 106 102 99 99 100 103 103 105 104 104 104 102 100 96 95 94 92 88 84 81 81 81 79 77 82 92 89 85 92 99 99 98 99 93 77 65 66 77 100 100 93 90 85 81 83 83 77 78 80 88 97 97
161 160 159 160 163 159 158 158 154 154 154 155 152 148 145 143 141 136 132 130 129 127 124 119 118 119 121 125 125 124 119 116 113 109 107 108 107 105 108 108 108 105 103 105 103 100 97 94 91 87 83 79 77 79 79 77 76 85 102 108 103 102 107 110 110 108 111 101 62 49 43 67 103 99 93 94 90 87 86 81 73 72 81 90 96
160 159 160 160 162 161 159 159 155 154 155 156 154 150 147 146 143 138 135 133 131 129 125 122 120 120 123 126 125 124 121 123 121 116 113 113 112 111 113 115 114 108 103 107 106 100 96 93 90 87 83 81 79 79 78 69 70 95 115 129 133 128 124 123 126 127 139 151 5 358 358 3 96 109 95 95 101 100 102 104 95 81 87 87 90
161 160 161 162 162 162 160 159 156 154 155 157 155 152 150 148 145 140 137 135 133 131 128 125 123 121 126 129 128 127 130 136 131 125 122 119 120 122 122 121 119 115 109 110 111 104 98 94 89 87 85 84 81 79 78 71 81 107 121 137 150 151 147 138 145 159 201 257 291 276 281 299 198 122 113 101 107 114 118 123 121 94 95 98 95
160 162 162 162 161 161 160 158 156 155 155 157 156 153 151 149 146 142 139 136 135 133 130 127 124 125 129 130 128 129 137 143 139 135 133 132 134 136 134 129 123 122 119 114 116 111 99 94 89 87 86 82 77 76 79 84 100 116 126 138 149 156 160 160 216 289 292 280 269 246 250 259 238 127 128 116 111 120 123 124 119 97 91 104 109
160 161 161 162 160 160 160 158 156 155 155 157 156 154 152 149 146 143 141 137 135 133 131 129 127 128 129 128 127 133 144 150 150 147 147 147 145 143 140 134 127 125 125 121 120 116 104 95 89 85 85 80 73 72 84 100 115 125 132 140 146 149 151 125 337 339 315 270 245 225 226 229 213 127 138 136 137 132 129 135 130 115 104 108 115
159 160 162 161 158 159 159 157 156 154 155 157 157 155 152 149 146 145 141 137 135 135 134 130 127 127 128 132 138 147 156 163 166 163 163 162 157 152 145 141 128 114 120 129 128 123 111 97 87 83 85 81 70 71 92 109 123 132 138 141 141 138 112 31 4 1 310 242 213 199 197 197 198 134 149 153 159 144 127 132 133 122 117 118 113
158 160 162 159 156 159 158 157 156 155 156 158 157 155 152 149 147 145 140 138 137 137 134 129 126 126 132 140 150 160 170 178 182 183 179 175 172 166 159 151 135 129 149 144 134 131 118 101 86 81 85 80 68 73 100 117 130 138 142 142 135 121 57 24 14 15 235 229 170 170 180 188 200 143 164 170 164 149 137 133 130 133 126 122 112
157 159 158 154 154 159 158 156 154 154 155 157 157 153 151 150 147 143 140 140 140 139 133 129 128 129 134 138 147 156 165 174 179 187 188 187 184 179 174 165 152 158 178 168 145 141 129 107 87 79 83 79 66 73 105 126 137 145 147 143 131 92 29 21 19 20 204 210 180 180 188 187 187 130 173 190 178 163 156 152 149 147 138 125 119
154 156 153 151 154 158 157 153 152 152 154 154 154 152 151 150 145 143 142 142 141 139 133 130 130 130 128 124 126 128 133 141 149 161 176 188 190 187 182 179 174 174 185 186 175 158 146 120 92 81 80 79 68 68 100 133 145 153 155 147 136 44 12 19 26 22 161 196 195 196 197 189 182 86 107 226 215 201 186 178 175 163 147 140 138
152 153 150 151 153 156 154 151 150 151 153 152 152 152 151 148 146 145 145 144 141 137 133 131 132 127 119 111 104 100 100 103 113 127 151 178 188 192 191 191 190 192 200 190 179 166 157 137 103 85 76 75 68 62 81 124 156 165 173 169 277 349 359 13 31 29 50 197 203 208 209 206 207 11 6 325 264 232 215 203 191 177 161 163 160
152 151 150 150 150 153 153 151 152 152 153 152 152 152 151 149 148 149 147 145 141 138 135 132 130 121 111 104 95 91 89 84 81 90 115 148 175 190 195 198 199 201 204 178 172 171 166 153 117 87 70 65 63 56 61 85 149 181 202 219 300 330 351 359 29 32 12 208 214 223 224 223 240 327 342 336 302 250 224 213 194 178 168 175 170
151 150 149 148 150 153 153 154 154 153 154 153 152 151 152 152 150 150 148 146 142 139 135 130 124 115 109 104 97 91 86 80 74 70 80 102 137 172 191 201 205 203 195 176 178 178 174 165 127 77 54 46 48 44 44 51 70 194 243 270 297 313 334 338 11 25 6 236 222 232 234 231 249 301 327 332 316 276 235 209 185 172 175 194 179
148 149 148 148 151 152 154 156 156 154 154 153 152 152 153 153 152 151 149 146 143 140 133 127 120 114 112 105 97 91 85 82 77 71 71 75 89 119 164 193 205 207 203 194 181 182 189 176 117 50 33 24 25 24 23 24 20 353 294 292 295 300 310 323 342 1 357 331 239 240 245 243 251 283 315 325 316 301 251 197 188 184 189 209 194
148 149 149 149 151 152 156 157 158 157 154 154 154 155 154 154 152 151 150 148 145 140 133 127 123 119 112 103 97 88 83 81 76 74 76 75 76 80 89 135 188 207 214 216 200 194 210 220 246 335 348 352 354 356 356 356 352 340 322 311 303 299 299 311 323 331 340 340 297 256 254 253 254 272 302 313 313 305 263 223 206 196 191 197 201
149 151 150 151 152 154 158 158 161 158 155 156 156 156 157 156 154 154 154 150 146 142 137 131 126 120 109 104 102 91 84 80 72 70 73 73 74 74 69 73 86 118 177 213 218 218 232 249 270 299 314 323 327 329 327 325 324 321 320 315 309 305 301 302 308 315 324 329 317 281 259 256 257 267 287 298 303 299 274 250 221 209 206 198 206
150 153 152 153 154 157 160 160 161 159 158 157 156 157 159 159 157 158 157 153 149 147 143 136 128 121 113 110 107 98 88 82 76 70 67 64 66 69 67 67 65 67 69 64 70 228 256 271 285 299 305 311 314 315 315 313 311 309 311 309 302 302 305 302 302 306 311 313 312 299 268 257 258 263 276 284 289 290 280 264 236 225 222 207 206
152 154 154 154 157 159 160 161 161 159 159 157 158 159 160 162 161 162 160 156 153 153 150 141 134 128 123 116 111 105 89 83 80 72 65 59 57 60 63 64 64 62 56 50 41 21 349 325 319 319 320 319 319 320 321 320 316 312 309 303 294 299 310 307 303 303 305 303 301 302 279 259 258 262 268 275 280 283 279 270 253 242 232 210 199
152 152 154 156 158 160 160 161 161 160 161 160 161 161 162 165 165 164 163 161 159 160 159 149 141 139 136 124 117 110 90 81 79 73 61 51 48 50 53 55 57 55 51 49 39 24 14 5 356 350 342 336 332 333 333 330 329 327 318 306 296 301 307 305 304 304 303 298 290 294 285 265 262 263 264 267 271 276 277 272 263 262 249 218 203
150 151 154 158 159 160 162 162 161 162 164 163 163 164 166 168 169 168 166 166 168 167 163 154 148 149 148 137 131 121 95 79 73 67 53 39 33 36 38 37 35 34 36 35 29 19 9 3 1 356 349 343 337 338 339 336 337 338 332 322 314 310 306 301 298 301 303 298 286 284 282 270 265 263 262 263 266 271 272 270 269 269 259 236 220
148 149 152 158 160 161 163 163 164 166 166 165 166 168 169 171 173 170 169 172 174 172 165 158 155 157 155 147 143 136 114 87 69 58 40 25 18 21 23 21 17 14 14 16 14 8 1 355 357 356 351 344 337 340 342 340 338 336 335 331 326 321 315 308 300 296 299 298 288 281 279 273 267 262 260 261 263 267 269 269 271 271 262 248 234
147 148 151 159 163 163 165 166 167 169 169 168 169 170 171 174 175 173 173 176 177 172 166 163 160 163 163 157 154 148 135 111 89 73 26 360 355 7 15 13 11 7 3 5 3 357 353 349 351 354 353 347 340 341 342 339 336 332 330 329 328 325 323 319 312 305 301 299 293 286 282 275 267 261 259 259 261 263 267 268 269 268 264 254 240
150 151 155 161 165 166 167 169 171 172 173 172 171 173 174 177 178 176 178 180 180 173 170 169 164 164 163 166 173 177 194 185 161 151 291 318 334 0 13 7 5 4 359 357 356 354 350 347 347 348 349 346 341 339 339 336 334 331 328 327 327 327 327 324 322 317 313 308 303 297 289 280 268 261 258 257 259 260 263 266 267 266 264 259 249
153 154 157 162 165 166 169 172 175 177 179 177 177 177 178 181 182 181 182 183 181 178 176 172 166 163 163 178 183 186 192 181 181 213 266 303 331 359 13 1 354 358 358 354 354 355 351 347 344 344 345 343 340 338 336 333 330 330 327 325 325 327 328 325 323 320 317 313 310 308 300 288 272 261 260 259 259 259 259 263 264 264 264 262 257
150 151 155 159 163 167 171 175 179 183 184 184 185 183 181 183 185 186 185 182 182 183 180 172 171 179 178 176 183 200 191 177 200 223 255 311 329 341 353 348 354 360 359 353 354 357 352 345 339 339 341 340 341 339 338 334 331 331 330 329 328 328 327 325 324 320 315 307 306 308 304 296 277 265 264 262 261 260 259 261 261 262 262 262 259
146 150 156 160 164 167 170 175 181 186 188 189 189 186 183 181 184 186 182 181 184 182 180 181 186 190 179 176 196 209 193 194 226 226 245 322 331 338 355 7 15 9 357 352 356 359 347 338 334 336 341 342 343 342 340 337 336 336 335 335 333 331 328 326 325 321 317 311 310 308 300 297 281 271 270 262 260 261 260 261 260 259 259 259 257
147 153 159 163 166 166 169 176 181 186 188 187 187 185 181 179 180 179 177 181 184 181 183 191 195 192 193 201 208 204 195 215 230 229 274 357 357 2 18 28 25 6 350 352 358 356 346 342 344 348 351 349 345 342 339 334 334 337 338 339 336 334 331 328 326 322 320 315 315 313 306 298 280 273 273 263 260 265 263 260 260 260 257 255 255
139 148 160 167 169 168 169 178 183 185 185 183 182 182 179 178 179 177 180 184 185 188 192 194 195 197 206 210 199 196 207 221 215 214 61 44 22 19 24 25 19 0 350 355 1 360 0 2 2 1 356 348 340 336 333 331 331 335 337 337 336 333 330 328 326 322 320 317 315 315 314 306 287 276 272 262 262 267 264 261 264 263 256 250 248
133 143 160 171 174 171 169 177 183 185 185 183 181 181 182 182 184 184 187 193 197 203 202 196 195 199 200 196 195 205 210 205 206 197 125 78 40 25 22 27 32 14 359 0 4 3 10 11 6 2 353 344 339 337 336 334 333 335 335 334 330 325 322 319 317 315 314 314 314 314 313 310 302 287 275 268 267 268 264 264 265 263 257 248 241
142 151 162 175 179 175 170 173 181 185 187 187 185 185 187 191 197 198 196 196 197 197 194 193 198 200 199 202 213 217 202 184 166 141 135 102 60 37 31 51 48 21 8 6 5 6 17 19 12 1 355 355 357 357 356 352 347 344 341 338 331 324 319 314 312 313 311 311 312 311 310 307 304 296 285 280 278 276 275 275 269 263 260 251 249
150 157 166 176 180 175 171 173 180 187 188 189 192 196 198 201 201 197 190 182 178 182 184 193 205 208 212 220 219 206 184 158 121 75 98 112 73 54 62 68 42 26 25 26 22 25 29 23 16 8 7 10 8 6 3 359 356 350 344 339 335 328 323 321 321 323 322 320 317 313 311 306 301 299 296 293 291 290 289 288 276 266 262 256 259
156 162 169 174 175 172 173 178 186 192 190 191 195 194 191 186 178 173 173 173 176 184 192 203 214 217 220 221 209 191 169 149 142 110 93 106 75 67 79 68 52 47 51 47 36 33 29 23 20 16 14 11 6 7 6 1 356 349 345 342 339 337 336 338 341 344 342 337 333 326 319 311 304 303 303 302 303 302 300 298 286 273 268 264 264
163 166 168 167 171 174 176 180 188 193 191 190 189 180 175 172 169 168 173 182 189 196 205 212 216 219 216 208 195 184 172 157 150 127 98 96 89 87 89 76 69 67 60 45 32 31 27 25 26 20 16 13 11 10 6 360 355 352 351 350 350 351 353 359 3 1 357 352 349 345 334 323 316 314 310 309 311 312 310 305 296 286 278 273 268
171 169 165 166 173 175 176 177 179 183 184 184 184 181 178 174 174 177 185 193 198 205 211 212 214 213 206 197 187 182 180 162 141 117 99 100 99 94 89 78 71 63 52 38 32 32 29 28 27 23 20 18 14 9 4 0 359 358 358 359 2 3 9 17 13 10 9 6 3 358 350 341 332 326 319 316 317 317 317 313 305 298 290 285 277
174 172 166 169 175 175 176 177 173 174 178 180 182 183 180 176 178 184 190 195 201 207 210 210 212 208 199 193 184 174 162 141 121 115 108 106 101 87 79 67 57 47 39 38 39 35 32 29 26 26 24 19 15 11 7 3 1 1 2 6 11 13 23 23 15 19 24 20 15 9 3 357 349 340 331 324 323 321 320 319 314 307 300 296 289
176 173 170 173 176 175 177 175 171 174 178 181 183 183 181 180 181 183 188 195 200 204 205 208 207 200 192 182 164 143 132 118 111 117 112 104 93 74 62 50 43 38 37 44 42 36 33 31 27 23 17 17 20 17 10 3 1 4 5 10 16 20 32 21 15 25 29 22 17 14 10 3 357 349 342 333 327 323 321 322 319 316 311 306 300
175 173 173 176 176 175 175 172 172 176 177 178 180 182 182 180 179 179 183 190 197 199 198 199 195 185 167 141 128 122 118 112 114 118 106 94 78 61 52 42 40 40 44 47 43 41 38 32 27 20 15 18 24 20 12 6 6 5 4 11 21 27 31 13 13 24 23 20 16 14 10 4 1 357 350 344 336 330 325 324 322 318 315 312 308
175 173 174 177 176 174 172 171 174 177 176 176 178 181 180 177 176 177 180 185 192 194 188 182 168 149 135 124 121 119 117 116 116 108 92 81 64 54 48 47 49 47 51 52 49 47 39 32 26 24 24 24 26 22 14 12 12 5 358 1 13 24 25 9 12 20 18 17 14 9 9 6 6 5 359 354 348 341 333 328 324 322 320 317 313
176 177 178 176 174 171 171 171 174 177 178 178 179 181 182 181 178 178 182 183 186 190 181 159 138 128 124 123 121 118 118 113 103 94 80 66 56 58 57 58 58 52 56 56 51 45 37 34 29 30 35 32 32 27 22 22 14 0 346 345 356 7 12 6 8 15 14 12 11 7 8 8 7 8 5 3 0 354 346 337 330 327 325 323 319
177 182 182 175 169 167 169 171 173 178 180 181 180 181 183 185 185 183 184 181 179 180 165 142 133 127 123 122 123 121 117 101 87 78 66 64 66 71 67 61 58 52 56 53 46 43 39 40 36 34 37 36 37 35 36 37 21 6 355 351 347 349 353 359 359 4 7 5 5 5 7 8 8 10 10 11 13 9 3 357 348 339 333 329 326
176 182 181 174 169 167 168 170 174 179 181 182 183 183 182 183 184 181 181 176 165 157 146 135 133 130 126 127 128 122 111 91 79 74 73 81 82 77 68 61 62 55 54 52 48 47 43 44 44 41 40 39 40 40 44 45 35 30 15 323 299 342 1 349 347 348 358 360 1 4 6 6 8 13 14 17 20 19 17 15 9 359 351 344 337
175 179 176 173 170 168 170 172 175 179 182 184 186 185 181 175 171 168 166 161 152 146 142 138 136 135 133 132 126 114 105 91 85 85 86 90 84 77 71 66 66 57 53 55 54 54 51 51 52 53 53 48 43 42 46 47 45 49 45 21 342 353 346 341 339 332 345 352 357 1 5 6 9 14 15 19 23 22 22 22 21 15 9 2 353
171 172 170 170 171 172 174 175 177 180 184 187 188 185 178 172 168 163 159 155 153 152 149 145 143 141 137 128 118 111 112 105 99 97 91 89 84 78 74 66 64 60 58 60 61 61 59 58 58 59 60 53 45 44 43 46 51 55 55 57 49 33 354 344 347 320 335 346 353 360 4 4 10 15 15 22 26 21 20 22 23 21 18 14 8
166 166 166 168 170 172 175 177 179 182 186 187 185 182 176 172 171 169 165 160 157 156 154 150 147 141 134 128 121 117 114 109 105 102 94 90 88 79 73 68 65 63 63 65 66 67 65 62 59 59 59 55 57 56 47 46 52 52 53 58 55 49 35 12 5 325 329 341 347 357 3 2 9 15 13 22 28 22 20 21 21 19 19 19 16
163 162 163 166 169 171 174 178 181 184 186 185 183 181 177 173 172 170 165 162 159 156 154 150 145 139 133 130 126 119 111 107 105 103 96 90 89 83 75 70 67 66 70 71 69 69 70 65 59 61 64 63 65 64 57 51 50 48 48 51 51 49 45 30 15 355 333 326 339 354 357 355 5 13 14 24 29 25 24 24 23 21 21 21 19
162 162 163 165 169 171 174 179 183 184 184 184 183 182 180 176 172 167 163 161 158 155 151 148 145 141 136 133 128 120 114 108 104 102 101 95 89 84 73 69 71 75 78 76 73 73 70 62 59 66 71 70 67 66 63 58 55 53 47 44 40 38 40 33 21 11 1 342 342 348 347 348 358 6 14 26 27 24 24 24 25 23 23 23 21
163 162 163 166 169 171 174 179 183 185 183 183 183 182 182 179 173 168 163 158 153 151 150 149 147 143 138 135 129 123 118 112 107 103 99 94 86 76 72 77 80 81 81 79 77 77 72 64 65 72 74 72 69 67 67 65 64 59 50 42 31 24 24 22 12 6 2 350 341 333 338 342 341 348 7 25 25 23 21 21 23 21 21 22 21
163 163 164 167 170 172 174 177 182 185 182 182 184 183 182 179 175 172 166 158 153 152 153 153 151 147 140 134 128 123 119 114 111 102 91 87 80 75 85 90 86 83 83 81 77 77 74 69 71 76 75 73 70 69 68 66 65 60 52 46 38 31 26 13 358 353 351 339 337 337 338 338 327 329 355 20 22 21 20 18 20 19 18 20 20